Погода в Виннице

Погода в Виннице : погода сейчас, прогноз погоды и архив. Всё, что Вы хотите узнать о погоде в Виннице!

Хотите узнать прогноз погоды в Виннице? Тогда Вам сюда: Погода в Виннице

Поиск расширенной информации на нашем сайте:

Другие новости

Новости СМИ2

Главная страница сайта

Новости сайта

02.10.2013

Напоминаем, что на нашем новом сайте вы можете получить высокодетализированные прогнозы погоды по пунктам России, СНГ и мира (включающие важные для авиации метеовеличины, такие как направление и скорость ветра, видимость, явления погоды, количество и форма облачности, нижняя и верхняя граница облачности), а также ознакомиться с разнообразными материалами по авиационной метеорологии и подборкой полезных ссылок на эту тему.

Сайт Метеоцентр.Азия посвящён разработке технологий оптимизации авиаметеорологического обслуживания, включая проектирование и перспективное создание нескольких автоматизированных авиаметеорологических систем:
- система выпуска высокодетальных прогностических карт явлений погоды для нижнего воздушного пространства по России и ближнему зарубежью;
- система верификации прогнозов TAF (выпускаемых синоптиками официальных АМСГ РФ и ближнего зарубежья) и AUTOTAF (выпускаемых сайтом Метеоцентр.Азия) - выявление ошибок, онлайн-сопоставление с фактической погодой METAR, автоматическое внесение коррективов в прогнозы при резком отклонении фактической погоды от прогноза, подсчёт оправдываемости прогнозов по элементам и в целом;
- система обработки, анализа и отображения авиаметеорологической информации для применения провайдерами метеорологической информации.

Рекомендуем: Авто новости

Погода в Виннице - сегодня

Время (UTC), дата Ветер
(°,м/с) 
Видим.   Явления Облачность Т
(°С)
Тd
(°С)
f(%) Тe
(°С)
Pmin
(гПа)
dP
(гПа)
Po
(мм)
O2
(г/м3)
Тmin Tmax R s Состояние
почвы
06 23.04.17 320 (СЗ) 13000 м    9/3 1000 м средняя 
[Sc|Ac trans]
+4.6 -0.8 68 +2  1011.1  731  290  +2.5         
09 23.04.17 310 (СЗ) 13000 м  в посл. час ливневой дождь  9/6 900 м кучево-дожд., средняя 
[Cb cap|Ac trans]
+7.1 -2.5 50 +5  1010.5  -0.3  731  287           
12 23.04.17 290 (З) 13000 м  {ливн. осадки}  9/6 700 м кучево-дожд., средняя 
[Cb cap|Ac trans]
+7.2 -2.7 49 +5  1010.3  -0.2  731  287      0.0     
15 23.04.17 320 (СЗ) 13000 м  {ливн. осадки}  8/4 600 м кучево-дожд., средняя 
[Cb cap|Ac trans]
+8.7 -3.3 43 +7  1009.8  -0.3  731  286           
18 23.04.17 290 (З) 13000 м  {ливн. осадки}  6/3 600 м верхняя 
[Sc|Ci fib]
+5.8 -2.5 55 +6  1011.6  1.4  732  289    +9.5  0.0     
21 23.04.17 300 (СЗ) 13000 м    6/0 средняя, верхняя 
[Ac trans|Ci fib]
+3.2 -1.9 69 +1  1013.8  0.8  733  292           
00 24.04.17 310 (СЗ) 13000 м    8/0 средняя 
[Ac trans]
+2.2 -1.5 76 1014.4  0.4  733  293           
03 24.04.17 310 (СЗ) 13000 м    3/0 средняя 
[Ac trans]
+0.1 -2.6 82 -2  1015.4  0.7  734  296           
06 24.04.17 300 (СЗ) 13000 м    ясно 
+3.5 -0.9 73 +1  1016.3  1.3  735  292  -0.3         
09 24.04.17 310 (СЗ) 13000 м    8/8 750 м кучево-дожд. 
[Cb cap]
+8.2 -5 39 +7  1016  0.3  735  288           
12 24.04.17 280 (З) 13000 м  в посл. час крупа{ливн. осадки}  9/8 600 м кучево-дожд., верхняя 
[Cb cap|Ci fib]
+2.7 +1.9 94 +2  1017.4  0.7  736  293         
15 24.04.17 300 (СЗ) 13000 м  {ливн. осадки}  8/5 600 м кучево-дожд., верхняя 
[Cb cap|Ci fib]
+7.5 -0.5 57 +5  1016.5  -0.3  735  288           
18 24.04.17 260 (З) 13000 м  {ливн. осадки}  3/3 600 м кучево-дожд. 
[Cb cap]
+4.8 -1.2 65 +4  1018.8  1.9  737  292    +9.4     
21 24.04.17 210 (ЮЗ) 13000 м    3/3 600 м 
[Sc]
+2.8 -1.1 75 +2  1019.9  0.8  737  294           
00 25.04.17 190 (Ю) 13000 м    9/0 средняя 
[Ac trans]
+2 -1.4 78 +1  1020.2  0.2  738  295           
03 25.04.17 200 (Ю) 13000 м    8/8 900 м 
[Sc]
+3.2 -0.6 76 +2  1019.8  -0.2  737  294           
06 25.04.17 180 (Ю) 13000 м    6/0 верхняя 
[Ci fib]
+6.6 +1.1 68 +5  1020  0.6  738  290  +1.5         
09 25.04.17 200 (Ю) 13000 м    5/3 1500 м верхняя 
[Cu hum|Ci fib]
+11.3 -1.4 41 +10  1018.8  -0.6  737  285           
12 25.04.17 190 (Ю) 13000 м    6/0 верхняя 
[Ci fib]
+13.7 -3 31 +13  1016.8  -1.6  736  283           
15 25.04.17 190 (Ю) 13000 м    3/0 верхняя 
[Ci fib]
+15.1 -1.4 32 +14  1015.1  -1.5  735  281           
18 25.04.17 170 (Ю) 13000 м    6/0 верхняя 
[Ci fib]
+12.2 +0.6 45 +12  1014.8  -0.6  735  283    +15.4       
21 25.04.17 170 (Ю) 13000 м    6/0 верхняя 
[Ci fib]
+10 +1.3 55 +9  1015.1  735  285           
00 26.04.17 180 (Ю) 13000 м    6/0 верхняя 
[Ci fib]
+8.1 +3.2 71 +7  1015.3  735  287           
03 26.04.17 160 (Ю) 13000 м    5/0 верхняя 
[Ci fib]
+6.6 +3 78 +5  1015.5  735  289           
06 26.04.17 180 (Ю) 13000 м    6/0 верхняя 
[Ci fib]
+9.5 +3.2 65 +9  1016.1  0.9  735  286  +5.7         
Время (UTC), дата Ветер
(°,м/с) 
Видим.   Явления Облачность Т
(°С)
Тd
(°С)
f(%) Тe
(°С)
Pmin
(гПа)
dP
(гПа)
Po
(мм)
O2
(г/м3)
Тmin Tmax R s Состояние
почвы

Для получения пояснительной информации подведите курсор к названию столбца.

ПОГОДА в Виннице - архив

Всё, что Вы хотите узнать о погоде в Виннице - удобно и подробно!

Выберите нужную дату (начиная с 1 января 2015* года) и нажмите кнопку "Найти".
Будут отображены архивные сводки погоды по пункту Винница, начиная с указанной даты.


Отображать данные в формате CSV (для использования в таблицах Excel)


Внимание! Наш архив погоды предназначен исключительно для личного некоммерческого использования в познавательных целях. Если Вам необходимы официальные справки о состоянии погоды (для производственных, юридических, коммерческих и т.п. целей), обращайтесь в органы Росгидромета.

*Примечание: данная дата относится к архиву по метеостанциям СССР (Россия, СНГ, Балтия).
Архив по метеостанциям Зарубежной Европы и Азии (кроме Китая) хранится 10 дней, по другим регионам земного шара (Китай, Африка, Америка, Австралия, Океания) - 1 день.

Винница - район местоположения метеостанции


Название, широта, долгота, высота метеостанции:
Винница 49.2°ш. 28.6°д. 298 м над ур. моря [Украина]

Дополнительная информация

В oтличие oт бoльшинства пoгoдных сайтoв мы публикуем пoдрoбную метеoинфoрмацию в детальнoм прoфессиoнальнoм фoрмате.

Характеристики температуры и влажнoсти вoздуха измеряются на высoте 2 м в тени вдали oт зданий и деревьев.
Скoрoсть ветра измеряется на высoте 10 м (на урoвне рoста челoвека скoрoсть ветра ниже в 1.5-2 раза). Если метеoстанция нахoдится в гoрoде или в лесу, тo скoрoсть ветра занижена на 2-4 м/с пo сравнению с oткрытым местoм. Скoрoсть ветра над акватoриями крупных рек и oзёр, а также на вершинах хoлмoв на 2-5 м/с выше, чем в oбычных услoвиях.
Атмoсфернoе давление в разных тoчках местнoсти мoжет значительнo oтличаться oт давления на метеoстанции, в зависимoсти oт услoвий рельефа (при пoдъёме на 10 м давление пoнижается примернo на 1 мм рт.ст.).